"Pseudo-MPEC" for JKm001

Created 2023 Aug 4 2:22:03 UT using Find_Orb

Click here for an explanation of pseudo-MPECs

 
 Astrometry: 
     JKm001 *3C2023 05 24s3rg7K_d/JbrGeu^P4V9[FneHxFBAstrometryq+NDr1cKKNZuj,T09
     JKm001  3C2023 05 24vU[4+okx+7lp9j5Gc:t=L]hw1L!cH0D]on(Gy?9oX^2nT31n-OtkT09
     JKm001  3C2023 05 24qKVNw27v57F)?m(8aRJErSQ*!93v^redacted;^!n2S#-W9D#B=pT09
     JKm001  3C2023 05 24%/1WY0uRc6?sI;1-ptI`wV=jTt3KElZV#:gxF*X\I,_=F5w@8^roT09
     JKm001  3C2023 05 24Ub#*OOOA/_D#Lv#1/_Z;xy2Eh0?H7O#TS-)(6%kv#ITL3cfHXd!DT09
     JKm001  3C2023 05 24ci.)IVty4N,uXh27Yb:\dn/R1OCm!hWDv:mS4FAcRu@(2Tj6/OyaT09
     JKm001  3C2023 05 24`(;^vpL-:!a/5.PR:GM[O9ittY]IYxc;9GkcMx#PSd_CLjugk#@pT09
     JKm001  0C2023 05 25knj$Q9])#Sv$D_Rwb\P'us-eItVLPQBuy3+74]j1b5Jn2gPclickT14
     JKm001  0C2023 05 25HKjUk9*!?Z,;V,(Vk/m%l^j.Mo_\RU*XE_#8i$WJ1sZqU6bd)A1AT14
     JKm001  0C2023 05 252sn'v-=(cG:.,=!PBXhereT-+4XaJ@%-a6OMdw.`+KBHL]03T1cPT14
     JKm001  0C2023 05 26j=]uQ;6U5Q,kXpCg0NlSv?j,RDroubf27=(NL=DhHP4'GWHW_:d5T14
     JKm001  0C2023 05 263Tueym4NU`GqhOC`sf.#T5J1]\forJRF_eU4+.(?\7tB^kegiK`UT14
     JKm001  0C2023 05 263d/#ht`$Dl%]XZq=hS6$k0F)eKk61explanationJO/Mr]gP'ZUlT14

Station data:
(T09) Mauna Kea-UH/Tholen NEO Follow-Up (Subaru)  (N19.825504 W155.476019)
   US/Hawaii.  Observer J. Kleyna. 8.2-m f/2.2 Subaru reflector.
(T14) Mauna Kea-UH/Tholen NEO Follow-Up (CFHT)  (N19.825252 W155.468876)
   US/Hawaii.  Observer D. J. Tholen. 3.6-m Canada-France-Hawaii Telescope.

Orbital elements:  JKm001
   Perihelion 2023 May 24.06551 +/- 0.863 TT =  1:34:20 (JD 2460088.56551)
Epoch 2023 May 26.0 TT = JDT 2460090.5   Earth MOID: 0.8165   Ur: 0.9492
q   1.81312193 +/- 0.00209          Ne: 0.5966                   AutoNEOCP
H   18.17 G 0.15                    Peri.   22.75116 +/- 0.45
                                    Node   329.10278 +/- 0.07
e   1.0000000 +/- 0                 Incl.   15.41606 +/- 0.024
From 13 observations 2023 May 24-26; mean residual 0".10
Residuals in arcseconds: 
230524 T09  .07-  .10-    230524 T09  .24+  .15+    230526 T14  .00   .21-    
230524 T09  .07-  .05-    230524 T09  .06+  .06-    230526 T14  .03-  .12+    
230524 T09  .02-  .04-    230525 T14  .09-  .10+    230526 T14  .13+  .07-    
230524 T09  .04-  .04-    230525 T14  .04-  .05+    
230524 T09  .03+  .07-    230525 T14  .07-  .16+    

Ephemerides (geocentric):
Date (UTC) HH   RA             Dec           delta  r     elong  mag " sig PA
---- --------  ------------   ------------  ------ ------ -----  --- --------
2023 08 04 02  03 31 04.448   +32 34 00.96  2.0749 2.0290  73.2 22.6  373  70
2023 08 04 03  03 31 09.322   +32 34 34.72  2.0747 2.0292  73.2 22.6  373  70
2023 08 04 04  03 31 14.194   +32 35 08.47  2.0746 2.0295  73.2 22.6  373  70
2023 08 04 05  03 31 19.066   +32 35 42.20  2.0745 2.0297  73.2 22.6  374  70
2023 08 04 06  03 31 23.935   +32 36 15.92  2.0743 2.0299  73.3 22.6  374  70
2023 08 04 07  03 31 28.803   +32 36 49.63  2.0742 2.0302  73.3 22.6  375  70
2023 08 04 08  03 31 33.669   +32 37 23.32  2.0741 2.0304  73.3 22.6  375  70
2023 08 04 09  03 31 38.534   +32 37 56.99  2.0739 2.0306  73.3 22.6  375  70
2023 08 04 10  03 31 43.398   +32 38 30.65  2.0738 2.0309  73.4 22.6  376  70
2023 08 04 11  03 31 48.259   +32 39 04.29  2.0737 2.0311  73.4 22.6  376  70
2023 08 04 12  03 31 53.119   +32 39 37.93  2.0735 2.0313  73.4 22.6  376  70
2023 08 04 13  03 31 57.978   +32 40 11.54  2.0734 2.0316  73.4 22.6  377  70
2023 08 04 14  03 32 02.835   +32 40 45.14  2.0733 2.0318  73.4 22.6  377  70
2023 08 04 15  03 32 07.690   +32 41 18.73  2.0731 2.0320  73.5 22.6  378  70
2023 08 04 16  03 32 12.544   +32 41 52.30  2.0730 2.0323  73.5 22.6  378  70
2023 08 04 17  03 32 17.396   +32 42 25.86  2.0729 2.0325  73.5 22.6  378  70
2023 08 04 18  03 32 22.246   +32 42 59.40  2.0727 2.0327  73.5 22.6  379  70
2023 08 04 19  03 32 27.095   +32 43 32.93  2.0726 2.0330  73.5 22.6  379  70
2023 08 04 20  03 32 31.943   +32 44 06.44  2.0725 2.0332  73.6 22.6  380  70
2023 08 04 21  03 32 36.789   +32 44 39.94  2.0723 2.0334  73.6 22.6  380  70
2023 08 04 22  03 32 41.633   +32 45 13.42  2.0722 2.0337  73.6 22.6  380  70
2023 08 04 23  03 32 46.475   +32 45 46.89  2.0721 2.0339  73.6 22.6  381  70
2023 08 05 00  03 32 51.316   +32 46 20.35  2.0719 2.0341  73.6 22.6  381  70
2023 08 05 01  03 32 56.156   +32 46 53.79  2.0718 2.0344  73.7 22.6  382  70
2023 08 05 02  03 33 00.993   +32 47 27.21  2.0717 2.0346  73.7 22.6  382  70
2023 08 05 03  03 33 05.830   +32 48 00.62  2.0715 2.0348  73.7 22.6  382  70
2023 08 05 04  03 33 10.664   +32 48 34.02  2.0714 2.0351  73.7 22.6  383  70
2023 08 05 05  03 33 15.497   +32 49 07.40  2.0713 2.0353  73.7 22.6  383  70
2023 08 05 06  03 33 20.329   +32 49 40.77  2.0711 2.0355  73.8 22.6  383  70
2023 08 05 07  03 33 25.158   +32 50 14.12  2.0710 2.0358  73.8 22.6  384  70
2023 08 05 08  03 33 29.986   +32 50 47.46  2.0709 2.0360  73.8 22.6  384  70
2023 08 05 09  03 33 34.813   +32 51 20.78  2.0707 2.0362  73.8 22.6  385  70
2023 08 05 10  03 33 39.638   +32 51 54.09  2.0706 2.0365  73.8 22.6  385  70
2023 08 05 11  03 33 44.461   +32 52 27.39  2.0705 2.0367  73.9 22.6  385  70
2023 08 05 12  03 33 49.283   +32 53 00.67  2.0703 2.0370  73.9 22.6  386  70
2023 08 05 13  03 33 54.103   +32 53 33.93  2.0702 2.0372  73.9 22.6  386  70
2023 08 05 14  03 33 58.921   +32 54 07.18  2.0701 2.0374  73.9 22.6  387  70
2023 08 05 15  03 34 03.738   +32 54 40.42  2.0699 2.0377  73.9 22.6  387  70
2023 08 05 16  03 34 08.553   +32 55 13.64  2.0698 2.0379  74.0 22.6  387  70
2023 08 05 17  03 34 13.366   +32 55 46.85  2.0697 2.0381  74.0 22.6  388  70
2023 08 05 18  03 34 18.178   +32 56 20.04  2.0695 2.0384  74.0 22.6  388  70
2023 08 05 19  03 34 22.988   +32 56 53.22  2.0694 2.0386  74.0 22.6  389  71
2023 08 05 20  03 34 27.797   +32 57 26.38  2.0693 2.0388  74.0 22.6  389  71
2023 08 05 21  03 34 32.604   +32 57 59.53  2.0691 2.0391  74.1 22.6  389  71
2023 08 05 22  03 34 37.409   +32 58 32.67  2.0690 2.0393  74.1 22.6  390  71
2023 08 05 23  03 34 42.213   +32 59 05.79  2.0689 2.0395  74.1 22.6  390  71
2023 08 06 00  03 34 47.015   +32 59 38.90  2.0687 2.0398  74.1 22.6  391  71
2023 08 06 01  03 34 51.815   +33 00 11.99  2.0686 2.0400  74.1 22.6  391  71